Tracking 29932 objects as of 3-Dec-2024
HD Live streaming from Space Station
objects crossing your sky now

IRIDIUM 33 DEB

Track IRIDIUM 33 DEB now!
10-day predictions


NORAD ID: 34651
Int'l Code: 1997-051KC
Perigee: 719.6 km
Apogee: 952.1 km
Inclination: 86.3 °
Period: 101.5 minutes
Semi major axis: 7206 km
RCS: 0.0077 m2 (small)
Launch date: September 14, 1997
Source: United States (US)
Launch site: TYURATAM MISSILE AND SPACE COMPLEX (TTMTR)

Note: This is SATELLITE DEBRIS
Your satellite tracking list
Your tracking list is empty




NASA's NSSDC Master Catalog

Two Line Element Set (TLE):
1 34651U 97051KC  24338.15225359  .00023293  00000-0  97775-2 0  9999
2 34651  86.2814 299.1353 0161306 324.0122  35.0286 14.19001901805882
Source of the keplerian elements: AFSPC